FALCON 9 R/B, 60234

Orbit data source: Space-Track

FALCON 9 R/B, 60234 is space debris in HEO originally from a launch on Mon, 08 Jul 2024 UTC launched from the Air Force Eastern Test Range (AFETR). Debris objects in space refer to the collection of defunct objects orbiting the Earth. Examples of debris include non-operational satellites, rocket bodies, and fragments generated from explosions, collisions, or faulty payload assembly.

Loading next visibility...
Identifier
60234, 2024-127B
Orbit
HEO
Country
Flag of USUS
Related business
Manufacturer
SpaceX
Mission
Spacecraft
Bus & Motor
F9ST2, Unknown motor
Mass
~4,000 kg wet, ~4,000 kg dry
Launch date (UTC)
2024-07-08 (1 year ago)
Launch vehicle
Unknown
Launch site
Air Force Eastern Test Range (AFETR)
Object type
Payload
Rocket body
Debris
Shape & HBR
Cyl, 7.8 m
Radar Cross Section
39.980 m², Large (>1 m²)

Expand to show TLE details & history
Last TLE update: 4 days ago

TLE from 4 days ago
0 FALCON 9 R/B
1 60234U 24127B   25257.30001468 -.00000478  00000-0  10040-2 0  9991
2 60234  25.9447  50.8277 8324164 284.4509   5.3932  1.03877699  4227
Epoch: 2025-09-14T07:12Z
TLE epoch observation values (Epoch: 2025-09-14T07:12:01.268Z)
Latitude
-0.00008°
Longitude
-50.68434°
Altitude
4,013.991 km
Speed
8.187 km/s
True Right ascension
03h 23m 22s
True Declination
0° 00' 00"
Sunlit
Object was in daylight at epoch
Visualization orbit readout
Latitude
Unknown
Longitude
Unknown
Altitude
Unknown
Speed
Unknown
Apparent Right ascension
Unknown
Apparent Declination
Unknown
Sunlit
N/A
Visualization observer readout
Local Sidereal Time
18:07:33
Azimuth
Unknown
Elevation
Unknown
Doppler factor
Unknown
Orbital elements
Apogee altitude
69,094.926 km
Perigee altitude
524.25 km
Semi-major axis
41,187.725 km
Eccentricity
0.83242
Inclination
25.9447°
RAAN
50.8277°
Arg. of periapsis
284.4509°
True anomaly
77.26874°
Mean anomaly
5.3932°
Eccentric anomaly
27.1769°
Mean motion
0.25965 °/min
Orbital period
1,386.47 mins
BSTAR
0.001004
Loading maneuver chart data...
Computing Atmospheric mass density...
Loading historical data...
Loading historical data...
Loading historical data...
Loading historical data...
Loading historical data...
Loading historical data...
Loading historical data...
Other satellites on launch #127 in the year 2024 (2024-07-08 UTC)

Documentation

Showing up to 5 results
|